#datint,netname,site,siteID,timestamp,IntT,BattV,AirT2,AirT,AirT_Avg,AirT_Max,AirT_Min,RH_Avg,RH_Max,RH_Min,EA_Avg,Td_Avg,Td_Max,Td_Min,WindS_Smp,WindS_Avg,WindD_Avg,WindD_SD,WindS_Max,ETo,ETr,SoilT4,SoilT8,SoilVWC8,SolarW_Avg,wetstate_Avg,wetT_Avg,Precip_accum,Precip_WPG,Precip_TB
15min,AgWx,beryljct,423,28FEB2019:00:00:00,32.0,12.91,31.6,31.2,32.0,33.3,30.9,78,82,73,0.477,25.8,27.0,25.1,0,1.2,249,3.1,2.8,-0.00015,-0.00021,.,33.0,24,0,0,35.5,10.85,0.00,0.00
15min,AgWx,beryljct,423,28FEB2019:00:15:00,31.8,12.91,29.9,29.3,29.7,31.2,29.2,84,85,80,0.464,25.3,25.9,25.1,2.609,1.8,17,31,4.6,-0.00013,-0.00017,.,33.0,24,0,0,35.5,10.86,0.00,0.00
15min,AgWx,beryljct,423,28FEB2019:00:30:00,31.5,12.9,28.6,29.0,29.5,30.1,28.9,83,85,81,0.450,25.0,25.5,24.5,0,1.0,45,15,2.6,-0.00016,-0.00023,.,33.0,24,0,0,35.9,10.86,0.00,0.00
15min,AgWx,beryljct,423,28FEB2019:00:45:00,31.1,12.91,30.3,29.5,28.9,29.5,28.5,86,87,83,0.468,25.2,25.5,24.4,0,0.0,58,0.1,0.6,-0.00022,-0.00036,.,33.0,24,0,0,35.6,10.86,0.00,0.00
15min,AgWx,beryljct,423,28FEB2019:01:00:00,30.9,12.9,29.7,28.9,29.4,29.9,28.8,84,86,82,0.463,25.1,25.6,24.5,3.113,1.4,147,38,4.1,-0.00015,-0.00020,.,33.0,24,0,0,35.3,10.86,0.00,0.00
15min,AgWx,beryljct,423,28FEB2019:01:15:00,30.8,12.88,30.3,29.6,29.4,29.9,28.9,86,87,84,0.469,25.6,26.2,25.3,0,1.7,174,48,3.5,-0.00013,-0.00017,.,33.0,24,0,0,35.7,10.86,0.00,0.00
15min,AgWx,beryljct,423,28FEB2019:01:30:00,30.8,12.75,29.4,29.7,29.7,29.9,29.5,85,85,84,0.465,25.7,25.9,25.4,1.469,0.3,13,13,1.7,-0.00021,-0.00033,.,33.0,24,0,0,35.8,10.86,0.00,0.00
15min,AgWx,beryljct,423,28FEB2019:01:45:00,30.7,12.88,30.2,30.1,29.4,30.3,28.9,86,87,83,0.479,25.7,26.4,25.0,2.455,1.9,190,16,4.1,-0.00013,-0.00016,.,33.0,24,0,0,35.6,10.86,0.00,0.00
15min,AgWx,beryljct,423,28FEB2019:02:00:00,30.8,12.87,30.7,30.3,29.8,30.4,29.3,85,86,84,0.480,25.9,26.6,25.3,3.135,3.2,206,11,4.4,-0.00009,-0.00010,.,33.0,24,0,0,35.8,10.86,0.00,0.00
15min,AgWx,beryljct,423,28FEB2019:02:15:00,31.1,12.88,31.9,32.3,32.3,34.0,30.2,78,85,71,0.488,26.2,27.0,24.8,4.319,4.0,189,5.5,5.4,-0.00004,-0.00004,.,33.0,24,0,0,35.5,10.86,0.00,0.00
15min,AgWx,beryljct,423,28FEB2019:02:30:00,31.4,12.86,36.7,33.2,32.1,33.3,31.2,80,83,76,0.516,26.7,27.9,26.0,3.946,3.9,197,7.1,5.0,-0.00005,-0.00006,.,33.0,24,0,0,35.8,10.86,0.00,0.00
15min,AgWx,beryljct,423,28FEB2019:02:45:00,31.8,12.86,34.1,33.4,34.0,35.4,33.1,75,80,70,0.481,26.7,28.6,25.5,4.231,4.3,198,9.9,5.2,-0.00002,-0.00002,.,33.0,24,0,0,35.6,10.86,0.00,0.00
15min,AgWx,beryljct,423,28FEB2019:03:00:00,31.9,12.86,36.3,35.6,33.4,35.8,31.6,76,81,71,0.498,26.6,28.3,25.3,4.911,5.0,211,11,6.2,-0.00001,-0.00000,.,33.0,24,0,0,35.7,10.86,0.00,0.00
15min,AgWx,beryljct,423,28FEB2019:03:15:00,32.1,12.86,33.5,33.1,33.9,35.7,33.0,75,79,70,0.498,26.8,27.3,26.0,1.556,2.9,247,13,4.5,-0.00007,-0.00007,.,33.0,24,0,0,35.3,10.87,0.00,0.00
15min,AgWx,beryljct,423,28FEB2019:03:30:00,32.1,12.72,31.0,30.2,31.5,34.0,29.9,80,83,75,0.462,25.9,27.6,24.9,2.039,2.7,7.2,55,4.7,-0.00009,-0.00010,.,33.0,24,0,0,35.5,10.86,0.00,0.00
15min,AgWx,beryljct,423,28FEB2019:03:45:00,31.9,12.84,28.8,28.5,29.7,30.3,28.4,82,85,80,0.450,24.8,25.4,24.3,1.206,2.1,357,28,3.5,-0.00011,-0.00014,.,33.0,24,0,0,35.7,10.86,0.00,0.00
15min,AgWx,beryljct,423,28FEB2019:04:00:00,31.5,12.84,30.1,29.8,29.0,29.9,28.5,85,86,84,0.465,25.1,25.8,24.6,3.069,1.8,251,70,3.6,-0.00013,-0.00016,.,33.0,24,0,0,35.4,10.86,0.00,0.00
15min,AgWx,beryljct,423,28FEB2019:04:15:00,31.3,12.84,29.3,31.5,31.2,34.2,29.5,83,86,75,0.456,26.6,28.4,24.9,2.258,2.4,180,28,4.3,-0.00011,-0.00013,.,33.0,24,0,0,35.7,10.86,0.00,0.00
15min,AgWx,beryljct,423,28FEB2019:04:30:00,31.7,12.84,35.5,35.4,33.3,39.8,29.2,79,89,62,0.475,27.2,30.8,24.5,4.735,3.1,273,63,9.5,-0.00007,-0.00008,.,33.0,24,0,0,36.5,10.86,0.00,0.00
15min,AgWx,beryljct,423,28FEB2019:04:45:00,32.6,12.81,32.1,31.8,32.9,35.8,31.3,76,80,69,0.477,26.2,27.5,25.3,4.012,4.6,2.0,13,6.8,-0.00002,-0.00001,.,33.0,24,0,0,35.7,10.86,0.00,0.00
15min,AgWx,beryljct,423,28FEB2019:05:00:00,32.4,12.83,29.9,29.2,31.0,32.0,29.1,79,83,78,0.453,25.4,26.3,24.3,1.622,2.6,343,25,5.0,-0.00009,-0.00011,.,33.0,24,0,0,35.3,10.86,0.00,0.00
15min,AgWx,beryljct,423,28FEB2019:05:15:00,31.8,12.81,30.7,29.8,29.8,30.5,29.2,82,84,80,0.447,25.1,25.6,24.3,4.034,1.8,284,37,4.3,-0.00013,-0.00016,.,33.0,24,0,0,35.4,10.86,0.00,0.00
15min,AgWx,beryljct,423,28FEB2019:05:30:00,31.2,12.82,30.1,30.0,29.8,30.4,29.4,82,83,80,0.462,24.9,25.8,24.1,3.003,2.8,327,7.1,4.2,-0.00009,-0.00010,.,33.0,24,0,0,35.9,10.87,0.00,0.00
15min,AgWx,beryljct,423,28FEB2019:05:45:00,31.1,12.67,30.7,30.7,30.4,31.0,29.6,82,84,81,0.474,25.7,26.5,24.7,1.951,3.5,350,15,5.2,-0.00007,-0.00008,.,33.0,24,0,0,35.6,10.86,0.00,0.00
15min,AgWx,beryljct,423,28FEB2019:06:00:00,30.9,12.8,30.9,29.9,30.0,30.6,29.5,84,86,82,0.481,25.6,26.1,25.2,2.389,1.7,344,13,3.0,-0.00013,-0.00017,.,33.0,24,0,0,35.5,10.87,0.00,0.00
15min,AgWx,beryljct,423,28FEB2019:06:15:00,30.5,12.81,29.1,29.2,29.1,30.0,28.4,85,86,83,0.458,25.1,26.2,24.4,0.855,2.5,78,26,4.0,-0.00010,-0.00012,.,33.0,24,0,0,35.5,10.87,0.00,0.00
15min,AgWx,beryljct,423,28FEB2019:06:30:00,30.3,12.81,29.5,29.0,28.9,29.5,28.4,86,88,83,0.474,25.2,25.9,24.5,1.995,1.7,179,40,3.8,0.00004,0.00007,.,33.0,24,0,0,35.5,10.87,0.00,0.00
15min,AgWx,beryljct,423,28FEB2019:06:45:00,30.3,12.8,30.5,29.9,29.6,30.5,29.0,87,88,85,0.480,26.2,27.1,25.8,0.723,0.8,165,22,3.9,0.00002,0.00004,.,33.0,24,0,0,35.7,10.86,0.00,0.00
15min,AgWx,beryljct,423,28FEB2019:07:00:00,30.1,12.81,31.3,31.5,31.2,32.7,29.9,85,88,81,0.492,27.2,28.5,26.1,2.346,0.6,215,16,2.3,0.00002,0.00004,.,33.0,24,1,0,35.7,10.86,0.00,0.00
15min,AgWx,beryljct,423,28FEB2019:07:15:00,30.1,12.81,37.8,35.3,33.2,35.3,31.2,82,86,79,0.554,28.2,29.6,26.4,2.499,1.4,175,13,2.6,0.00006,0.00010,.,33.0,24,4,0,35.6,10.86,0.00,0.00
15min,AgWx,beryljct,423,28FEB2019:07:30:00,30.6,12.81,40.5,39.5,37.6,39.5,35.5,73,80,69,0.568,29.8,30.6,27.7,1.315,2.6,178,5.4,3.6,0.00017,0.00027,.,33.0,24,8,0,36.0,10.86,0.00,0.00
15min,AgWx,beryljct,423,28FEB2019:07:45:00,31.1,12.83,32.4,33.2,36.3,39.7,32.7,73,82,66,0.518,28.4,30.6,25.6,2.674,1.2,48,76,3.0,0.00014,0.00019,.,33.0,24,16,0,35.8,10.86,0.00,0.00
15min,AgWx,beryljct,423,28FEB2019:08:00:00,31.7,13.1,36.2,35.4,33.2,35.4,31.9,81,84,79,0.553,28.1,29.8,26.4,3.836,3.4,305,11,4.9,0.00044,0.00054,.,33.0,24,100,0,40.2,10.86,0.00,0.00
15min,AgWx,beryljct,423,28FEB2019:08:15:00,33.6,13.43,36.7,38.8,36.1,38.8,35.3,78,80,73,0.583,29.9,31.4,29.0,0.307,1.7,341,17,4.0,0.00067,0.00076,.,33.0,24,167,0,50.0,10.86,0.00,0.00
15min,AgWx,beryljct,423,28FEB2019:08:30:00,36.4,14.64,42.0,42.8,40.3,43.0,37.9,71,76,63,0.600,31.6,32.4,30.2,4.012,2.8,55,28,6.7,0.00099,0.00116,.,33.0,25,227,0,55.7,10.86,0.00,0.00
15min,AgWx,beryljct,423,28FEB2019:08:45:00,39.9,14.63,45.9,45.2,43.4,45.2,42.1,64,69,61,0.625,32.1,32.8,31.5,10.39,5.8,147,42,15.5,0.00134,0.00169,.,33.0,25,277,0,58.7,10.86,0.00,0.00
15min,AgWx,beryljct,423,28FEB2019:09:00:00,43.0,14.53,46.7,46.1,45.8,46.2,45.2,59,62,58,0.619,32.5,32.9,32.2,17.52,13.2,198,11,18.3,0.00177,0.00245,.,33.0,25,320,0,56.1,10.86,0.00,0.00
15min,AgWx,beryljct,423,28FEB2019:09:15:00,45.2,14.5,46.9,46.6,46.4,46.6,46.1,59,60,58,0.638,32.9,33.2,32.3,16.05,14.7,202,7.7,21.1,0.00196,0.00270,.,33.0,25,365,0,56.7,10.86,0.00,0.00
15min,AgWx,beryljct,423,28FEB2019:09:30:00,46.8,14.53,47.4,47.2,46.9,47.3,46.6,59,60,59,0.655,33.5,34.2,33.1,16.31,15.3,205,8.6,19.9,0.00213,0.00289,.,33.0,24,411,0,57.6,10.86,0.00,0.00
15min,AgWx,beryljct,423,28FEB2019:09:45:00,48.0,14.46,48.0,47.7,47.5,47.9,47.0,59,60,58,0.675,34.2,34.8,33.7,14.1,13.3,198,11,18.6,0.00230,0.00303,.,33.0,24,458,0,59.6,10.85,0.00,0.00
15min,AgWx,beryljct,423,28FEB2019:10:00:00,49.0,14.45,48.1,47.8,47.7,48.0,47.5,61,63,59,0.692,35.0,36.0,34.2,20.1,15.6,203,11,21.3,0.00243,0.00320,.,33.0,24,505,0,59.3,10.86,0.00,0.00
15min,AgWx,beryljct,423,28FEB2019:10:15:00,49.7,14.44,48.5,48.2,48.0,48.3,47.6,62,63,61,0.703,35.4,36.2,34.9,16.7,16.4,208,7.5,21.4,0.00255,0.00334,.,33.0,25,543,0,59.8,10.86,0.00,0.00
15min,AgWx,beryljct,423,28FEB2019:10:30:00,50.2,14.43,48.6,48.2,48.3,48.5,48.1,62,64,60,0.728,36.0,36.7,35.1,16.29,18.1,210,8.1,23.7,0.00262,0.00345,.,33.0,25,563,0,59.8,10.85,0.00,0.00
15min,AgWx,beryljct,423,28FEB2019:10:45:00,50.6,14.44,49.6,49.4,48.8,49.4,48.3,63,64,61,0.750,36.5,37.5,35.7,16.77,17.8,212,9.2,22.7,0.00274,0.00357,.,33.0,25,597,0,59.9,10.85,0.00,0.00
15min,AgWx,beryljct,423,28FEB2019:11:00:00,51.3,14.02,49.6,49.4,49.7,50.0,49.4,61,63,60,0.734,37.0,37.9,36.3,15.48,16.1,213,9.2,19.5,0.00295,0.00379,.,33.0,24,627,0,61.7,10.85,0.00,0.00
15min,AgWx,beryljct,423,28FEB2019:11:15:00,51.4,14.11,50.0,49.4,49.1,49.4,48.9,62,63,61,0.754,36.6,37.4,36.2,13.44,15.6,208,7.7,19.1,0.00244,0.00323,.,33.0,24,468,0,58.0,10.85,0.00,0.00
15min,AgWx,beryljct,423,28FEB2019:11:30:00,51.5,14.03,51.2,50.4,49.4,50.4,48.8,63,65,61,0.796,37.2,38.7,36.1,13.31,15.3,214,8.5,20.7,0.00276,0.00354,.,33.0,24,578,0,59.4,10.85,0.00,0.00
15min,AgWx,beryljct,423,28FEB2019:11:45:00,52.1,14.01,49.9,49.9,50.1,50.7,49.7,62,64,60,0.771,37.4,38.9,36.4,13.85,14.5,207,11,18.3,0.00285,0.00365,.,33.0,24,584,0,61.3,10.84,0.00,0.00
15min,AgWx,beryljct,423,28FEB2019:12:00:00,52.5,14,50.8,50.3,50.1,50.7,49.5,61,63,60,0.751,37.1,38.1,36.1,17.03,15.5,211,9.9,22.3,0.00296,0.00380,.,33.0,24,615,0,61.3,10.85,0.00,0.00
15min,AgWx,beryljct,423,28FEB2019:12:15:00,53.1,13.99,49.5,49.7,50.5,51.1,49.7,60,63,58,0.730,37.2,38.8,35.7,15.21,14.2,203,13,19.8,0.00290,0.00373,.,33.0,24,575,0,62.0,10.84,0.00,0.00
15min,AgWx,beryljct,423,28FEB2019:12:30:00,53.2,13.99,52.3,51.8,50.2,51.8,49.5,61,64,60,0.833,37.5,39.8,36.2,14.27,14.4,196,9.4,19.8,0.00287,0.00367,.,33.0,24,591,0,60.2,10.84,0.00,0.00
15min,AgWx,beryljct,423,28FEB2019:12:45:00,53.8,13.97,50.8,50.2,51.0,51.7,50.2,60,63,58,0.749,37.7,39.1,36.7,10.87,14.8,199,12,20.7,0.00312,0.00399,.,33.0,24,637,0,62.9,10.84,0.00,0.00
15min,AgWx,beryljct,423,28FEB2019:13:00:00,53.6,13.98,51.5,50.6,50.0,50.6,49.5,61,64,59,0.771,37.2,38.3,36.0,9.32,13.0,189,15,17.5,0.00234,0.00307,.,33.0,24,422,0,58.3,10.84,0.00,0.00
15min,AgWx,beryljct,423,28FEB2019:13:15:00,53.4,14,50.5,50.3,50.2,50.9,49.6,61,63,59,0.761,37.3,38.8,35.8,12.08,12.2,192,10,17.6,0.00185,0.00254,.,33.0,24,268,0,57.2,10.84,0.00,0.00
15min,AgWx,beryljct,423,28FEB2019:13:30:00,53.2,14.02,51.6,51.1,50.6,51.1,50.2,60,62,58,0.750,37.2,38.2,36.4,14.71,12.2,201,10,18.9,0.00204,0.00276,.,33.0,24,318,0,58.3,10.84,0.00,0.00
15min,AgWx,beryljct,423,28FEB2019:13:45:00,53.6,14.08,53.4,52.7,51.8,52.8,51.1,59,61,57,0.792,37.7,39.0,36.8,12.65,15.2,199,11,20.5,0.00289,0.00379,.,33.0,24,565,0,60.7,10.84,0.00,0.00
15min,AgWx,beryljct,423,28FEB2019:14:00:00,54.6,13.94,53.1,52.6,52.8,53.2,52.3,58,60,56,0.772,38.3,39.3,36.9,19.49,16.0,198,10,19.9,0.00349,0.00448,.,33.0,24,711,0,62.0,10.84,0.00,0.00
15min,AgWx,beryljct,423,28FEB2019:14:15:00,55.4,14,53.3,53.2,53.0,53.5,52.6,57,61,55,0.779,38.4,40.2,37.0,13.81,15.2,201,14,19.6,0.00343,0.00440,.,33.0,25,686,0,61.3,10.83,0.00,0.00
15min,AgWx,beryljct,423,28FEB2019:14:30:00,56.1,13.9,54.2,53.1,53.0,53.3,52.5,56,59,53,0.811,37.8,39.3,35.8,13.72,14.1,197,17,20.7,0.00333,0.00428,.,33.0,24,651,0,61.2,10.84,0.00,0.00
15min,AgWx,beryljct,423,28FEB2019:14:45:00,56.5,13.91,52.4,52.7,52.9,53.3,52.4,56,59,53,0.766,37.8,39.4,35.9,10.54,14.5,190,16,19.6,0.00282,0.00375,.,33.0,24,524,0,59.7,10.83,0.00,0.00
15min,AgWx,beryljct,423,28FEB2019:15:00:00,56.5,13.9,54.0,53.9,53.0,54.0,52.3,56,59,53,0.788,37.7,38.9,36.6,13.42,14.7,190,12,20.6,0.00310,0.00406,.,33.0,24,599,0,58.8,10.83,0.00,0.00
15min,AgWx,beryljct,423,28FEB2019:15:15:00,57.0,13.86,53.7,53.6,53.8,54.5,53.4,55,57,52,0.760,37.9,39.4,36.5,16.53,15.2,194,14,20.8,0.00321,0.00423,.,33.0,24,600,0,58.8,10.83,0.00,0.00
15min,AgWx,beryljct,423,28FEB2019:15:30:00,57.2,13.85,53.3,53.5,53.4,53.8,53.2,54,56,53,0.736,37.2,38.2,36.6,18.02,16.9,191,8.2,20.8,0.00298,0.00405,.,33.0,24,539,0,57.1,10.84,0.00,0.00
15min,AgWx,beryljct,423,28FEB2019:15:45:00,57.3,13.87,54.2,54.0,53.7,54.0,53.2,54,57,51,0.782,37.4,38.8,36.4,16.57,15.4,192,9.6,21.6,0.00287,0.00390,.,33.0,24,510,0,56.6,10.83,0.00,0.00
15min,AgWx,beryljct,423,28FEB2019:16:00:00,57.3,13.88,53.4,53.7,53.6,54.0,53.2,54,55,51,0.724,37.2,38.1,35.9,17.67,16.6,192,12,21.0,0.00272,0.00378,.,33.1,24,468,0,56.0,10.83,0.00,0.00
15min,AgWx,beryljct,423,28FEB2019:16:15:00,57.0,13.87,54.1,53.8,53.5,53.8,53.2,52,54,51,0.742,36.4,37.2,35.7,16.24,15.8,205,8.3,20.7,0.00243,0.00348,.,33.1,24,389,0,55.5,10.83,0.00,0.00
15min,AgWx,beryljct,423,28FEB2019:16:30:00,56.8,13.87,53.4,53.0,53.4,53.9,53.0,51,53,50,0.723,35.9,37.1,35.3,14.97,16.9,200,12,22.2,0.00242,0.00351,.,33.1,24,373,0,55.0,10.83,0.00,0.00
15min,AgWx,beryljct,423,28FEB2019:16:45:00,56.4,13.87,53.0,52.9,53.0,53.2,52.8,52,53,51,0.708,35.9,36.6,35.3,17.14,17.6,184,8.9,21.2,0.00222,0.00330,.,33.1,24,326,0,54.6,10.83,0.00,0.00
15min,AgWx,beryljct,423,28FEB2019:17:00:00,56.1,13.88,52.7,52.7,52.8,53.0,52.6,53,55,51,0.732,36.1,37.0,35.3,20.94,16.2,190,6.8,20.9,0.00195,0.00296,.,33.1,24,277,0,54.7,10.83,0.00,0.00
15min,AgWx,beryljct,423,28FEB2019:17:15:00,55.6,13.95,52.4,52.1,52.3,52.6,52.1,53,55,51,0.684,35.7,37.0,34.6,16.68,17.7,191,7.9,23.8,0.00180,0.00284,.,33.1,24,228,0,53.7,10.83,0.01,0.00
15min,AgWx,beryljct,423,28FEB2019:17:30:00,55.0,13.94,52.0,51.7,52.0,52.2,51.7,52,54,51,0.692,35.1,35.5,34.6,15.92,15.9,193,7.2,20.9,0.00067,0.00076,.,33.2,24,181,0,53.4,10.83,0.00,0.00
15min,AgWx,beryljct,423,28FEB2019:17:45:00,54.3,13.95,51.2,51.2,51.4,51.8,51.1,54,56,53,0.687,35.4,36.0,34.9,13.94,16.2,188,7.7,21.2,0.00060,0.00068,.,33.2,24,135,0,52.7,10.84,0.01,0.00
15min,AgWx,beryljct,423,28FEB2019:18:00:00,53.4,13.99,50.5,50.4,50.8,51.2,50.4,54,56,52,0.681,35.0,35.6,34.3,14.97,14.1,188,7.9,19.4,0.00052,0.00060,.,33.2,24,91,0,51.0,10.83,0.00,0.00
15min,AgWx,beryljct,423,28FEB2019:18:15:00,52.3,13.2,50.2,49.4,49.8,50.5,49.2,56,57,55,0.672,34.7,35.1,34.3,16.11,13.5,191,6.6,16.4,0.00042,0.00050,.,33.2,24,38,0,49.5,10.83,0.00,0.00
15min,AgWx,beryljct,423,28FEB2019:18:30:00,51.0,13.15,48.9,48.5,48.9,49.5,48.5,56,58,55,0.661,34.1,34.4,33.8,9.93,11.6,192,7.5,16.0,0.00034,0.00042,.,33.3,24,8,0,48.0,10.83,0.00,0.00
15min,AgWx,beryljct,423,28FEB2019:18:45:00,49.8,13.11,48.9,48.4,48.4,48.5,48.1,57,58,56,0.649,33.7,34.0,33.3,12.25,11.1,203,7.2,16.1,0.00032,0.00039,.,33.3,24,1,0,47.1,10.84,0.00,0.00
15min,AgWx,beryljct,423,28FEB2019:19:00:00,49.0,13.09,47.9,47.5,47.9,48.5,47.4,58,59,56,0.653,33.7,33.9,33.4,7.256,9.8,198,7.6,15.3,0.00027,0.00034,.,33.3,24,0,0,46.5,10.83,0.00,0.00
15min,AgWx,beryljct,423,28FEB2019:19:15:00,48.1,13.08,46.5,47.2,47.3,47.7,46.9,59,60,58,0.650,33.6,33.7,33.5,8.15,8.7,194,6.7,11.2,0.00023,0.00030,.,33.4,24,0,0,45.8,10.84,0.01,0.00
15min,AgWx,beryljct,423,28FEB2019:19:30:00,47.5,13.07,47.4,47.2,47.2,47.6,46.7,59,59,58,0.647,33.5,33.7,33.3,8.72,9.1,197,6.8,12.9,0.00024,0.00031,.,33.4,24,0,0,45.8,10.84,0.00,0.00
15min,AgWx,beryljct,423,28FEB2019:19:45:00,47.3,13.06,48.3,47.5,47.4,47.7,47.1,59,59,58,0.651,33.6,33.8,33.5,13.2,10.6,208,6.7,14.7,0.00028,0.00034,.,33.4,24,0,0,46.1,10.84,0.00,0.00
15min,AgWx,beryljct,423,28FEB2019:20:00:00,47.3,13.05,47.4,47.8,47.8,48.2,47.5,57,58,55,0.635,33.1,33.7,32.8,8.53,12.4,206,8.2,16.2,0.00034,0.00041,.,33.4,24,0,0,46.7,10.84,0.00,0.00
15min,AgWx,beryljct,423,28FEB2019:20:15:00,47.5,13.04,48.2,47.9,47.9,48.1,47.6,56,57,55,0.636,33.0,33.1,32.8,11.88,12.7,205,5.9,17.1,0.00035,0.00042,.,33.4,24,0,0,46.8,10.84,0.00,0.00
15min,AgWx,beryljct,423,28FEB2019:20:30:00,47.7,13.03,47.9,47.7,47.9,48.1,47.7,56,57,56,0.643,33.0,33.3,32.8,11.49,12.8,203,6.3,16.8,0.00035,0.00042,.,33.4,24,0,0,47.1,10.84,0.00,0.00
15min,AgWx,beryljct,423,28FEB2019:20:45:00,47.8,13.03,47.6,46.5,47.2,48.0,46.2,60,62,57,0.664,33.8,34.1,33.3,8.13,9.1,192,8.5,14.8,0.00023,0.00030,.,33.5,24,0,0,47.4,10.84,0.00,0.00
15min,AgWx,beryljct,423,28FEB2019:21:00:00,47.5,13.01,46.2,45.8,46.4,47.1,45.8,62,63,61,0.665,34.1,34.2,33.8,5.13,6.0,177,9.4,8.8,0.00012,0.00017,.,33.5,24,0,0,46.2,10.84,0.00,0.00
15min,AgWx,beryljct,423,28FEB2019:21:15:00,46.7,13.02,45.1,44.9,45.4,45.9,44.5,64,65,63,0.653,33.9,34.4,33.4,5.108,5.4,182,10,7.6,0.00008,0.00012,.,33.5,24,0,0,44.5,10.84,0.00,0.00
15min,AgWx,beryljct,423,28FEB2019:21:30:00,45.6,13.01,44.0,44.1,44.4,45.0,43.8,65,67,63,0.637,33.3,33.6,32.9,4.428,5.1,185,7.1,7.5,0.00006,0.00010,.,33.5,24,0,0,42.7,10.84,0.00,0.00
15min,AgWx,beryljct,423,28FEB2019:21:45:00,44.7,13,43.7,43.7,44.3,44.8,43.7,65,66,64,0.640,33.2,33.4,32.9,5.941,6.0,198,4.3,8.4,0.00009,0.00013,.,33.5,24,0,0,42.5,10.85,0.00,0.00
15min,AgWx,beryljct,423,28FEB2019:22:00:00,44.1,13,46.6,45.6,44.3,45.6,43.2,65,68,62,0.647,33.2,33.6,33.0,10.81,7.9,195,5.5,12.5,0.00014,0.00019,.,33.5,24,0,0,42.9,10.84,0.00,0.00
15min,AgWx,beryljct,423,28FEB2019:22:15:00,44.5,13,46.8,46.2,46.0,46.3,45.6,61,62,60,0.647,33.3,33.5,33.2,10.39,9.4,199,6.9,13.1,0.00022,0.00028,.,33.5,24,0,0,45.0,10.85,0.00,0.00
15min,AgWx,beryljct,423,28FEB2019:22:30:00,45.2,13,47.9,47.2,47.0,47.4,46.2,59,61,59,0.652,33.6,33.8,33.4,12.85,11.6,210,6.9,17.8,0.00029,0.00035,.,33.5,25,0,0,46.1,10.84,0.00,0.00
15min,AgWx,beryljct,423,28FEB2019:22:45:00,45.9,12.99,47.1,47.0,47.2,47.7,46.9,59,60,58,0.653,33.7,33.8,33.6,9.89,12.1,208,6.5,17.9,0.00030,0.00036,.,33.5,24,0,0,46.3,10.84,0.00,0.00
15min,AgWx,beryljct,423,28FEB2019:23:00:00,46.2,12.97,46.8,46.7,46.9,47.3,46.6,60,60,59,0.653,33.7,33.8,33.5,10.83,11.1,205,6.4,16.3,0.00027,0.00033,.,33.5,25,0,0,45.9,10.84,0.00,0.00
15min,AgWx,beryljct,423,28FEB2019:23:15:00,46.4,12.98,47.1,46.7,47.0,47.4,46.6,60,60,59,0.655,33.7,33.8,33.6,13.2,13.2,206,5.9,19.0,0.00031,0.00037,.,33.4,24,0,0,46.1,10.84,0.00,0.00
15min,AgWx,beryljct,423,28FEB2019:23:30:00,46.6,12.98,47.1,46.9,46.7,47.0,46.4,60,61,60,0.656,33.7,33.9,33.6,12.93,13.3,209,6.8,17.2,0.00030,0.00036,.,33.5,24,0,0,46.0,10.85,0.00,0.00
15min,AgWx,bigpiney,439,28FEB2019:00:00:00,25.1,12.75,21.9,21.4,22.0,22.5,21.3,92,93,91,0.360,20.0,20.7,19.1,2.477,3.2,336,37,6.1,-0.00009,-0.00011,30.0,29.9,8,0,0,0.0,0.09,0.00,0.00
15min,AgWx,bigpiney,439,28FEB2019:00:15:00,24.7,12.74,20.9,21.2,21.6,22.0,21.1,92,93,92,0.358,19.7,20.4,19.1,5.546,2.6,308,33,7.1,-0.00010,-0.00012,30.0,30.0,8,0,0,0.0,0.09,0.00,0.00
15min,AgWx,bigpiney,439,28FEB2019:00:30:00,24.2,12.73,21.6,20.6,21.1,22.0,20.3,92,93,90,0.347,19.2,20.3,17.9,3.31,4.2,293,17,6.2,-0.00007,-0.00008,30.0,29.9,8,0,0,0.0,0.09,0.00,0.00
15min,AgWx,bigpiney,439,28FEB2019:00:45:00,23.8,12.72,19.8,19.9,20.9,22.2,19.6,92,93,90,0.338,18.8,20.4,17.0,2.126,3.4,332,23,5.6,-0.00008,-0.00010,30.0,30.0,8,0,0,0.0,0.09,0.00,0.00
15min,AgWx,bigpiney,439,28FEB2019:01:00:00,23.4,12.72,20.5,20.0,19.8,20.6,19.2,92,93,91,0.342,17.8,19.0,17.0,2.981,3.5,316,21,6.1,-0.00008,-0.00009,30.0,29.9,8,0,0,0.0,0.09,0.00,0.00
15min,AgWx,bigpiney,439,28FEB2019:01:15:00,23.0,12.71,20.2,19.9,20.2,20.7,19.8,92,93,92,0.340,18.3,18.9,17.8,1.578,3.2,297,16,5.0,-0.00009,-0.00010,30.0,30.0,8,0,0,0.0,0.09,0.00,0.00
15min,AgWx,bigpiney,439,28FEB2019:01:30:00,22.7,12.7,19.6,19.7,20.4,21.0,19.6,92,93,90,0.330,18.4,19.1,17.1,4.998,3.4,271,26,5.0,-0.00008,-0.00010,30.0,30.0,8,0,0,0.0,0.09,0.00,0.00
15min,AgWx,bigpiney,439,28FEB2019:01:45:00,22.6,12.7,20.4,20.3,20.1,20.6,19.2,91,92,90,0.342,18.0,18.5,16.8,3.99,4.2,239,12,7.6,-0.00007,-0.00008,30.0,29.9,8,0,0,0.0,0.09,0.00,0.00
15min,AgWx,bigpiney,439,28FEB2019:02:00:00,22.5,12.7,21.2,20.5,19.9,20.5,19.4,91,92,90,0.347,17.7,18.4,17.0,4.516,3.6,256,15,4.8,-0.00008,-0.00009,30.0,30.0,8,0,0,0.0,0.09,0.00,0.00
15min,AgWx,bigpiney,439,28FEB2019:02:15:00,22.5,12.69,22.0,21.5,20.7,21.7,19.9,91,92,90,0.357,18.5,19.7,17.5,4.538,4.4,263,13,5.4,-0.00007,-0.00007,30.0,29.9,8,0,0,0.0,0.09,0.00,0.00
15min,AgWx,bigpiney,439,28FEB2019:02:30:00,22.7,12.68,23.1,22.9,22.5,23.2,21.5,90,92,89,0.374,20.1,20.9,19.1,2.828,3.6,274,23,7.5,-0.00008,-0.00009,30.0,29.9,8,0,0,0.0,0.09,0.00,0.00
15min,AgWx,bigpiney,439,28FEB2019:02:45:00,23.1,12.68,22.5,21.8,22.3,22.9,21.7,89,90,89,0.358,19.6,20.2,19.0,1.359,2.4,273,16,3.2,-0.00010,-0.00012,30.0,30.0,8,0,0,0.0,0.09,0.00,0.00
15min,AgWx,bigpiney,439,28FEB2019:03:00:00,23.4,12.67,22.5,21.3,21.7,22.3,21.0,89,90,88,0.352,18.9,19.8,18.1,0,1.3,226,26,3.2,-0.00013,-0.00018,30.0,30.0,8,0,0,0.0,0.09,0.00,0.00
15min,AgWx,bigpiney,439,28FEB2019:03:15:00,23.4,12.66,21.2,20.8,21.0,21.4,20.8,89,90,89,0.343,18.4,18.8,18.1,2.389,2.0,218,24,3.2,-0.00011,-0.00014,30.0,30.0,8,0,0,0.0,0.09,0.00,0.00
15min,AgWx,bigpiney,439,28FEB2019:03:30:00,23.4,12.65,21.0,20.5,20.8,21.0,20.5,89,90,89,0.339,18.2,18.4,17.8,0.022,1.8,232,57,3.2,-0.00012,-0.00015,30.0,30.0,8,0,0,0.0,0.09,0.00,0.00
15min,AgWx,bigpiney,439,28FEB2019:03:45:00,23.3,12.65,20.7,20.4,20.6,20.7,20.4,89,90,89,0.335,17.9,18.1,17.6,1.469,1.6,167,28,2.7,-0.00012,-0.00016,30.1,30.1,8,0,0,0.0,0.09,0.00,0.00
15min,AgWx,bigpiney,439,28FEB2019:04:00:00,23.2,12.65,19.8,19.6,20.2,20.4,19.6,89,89,88,0.322,17.4,17.7,16.7,3.529,2.5,209,9.1,3.9,-0.00009,-0.00011,30.1,30.0,8,0,0,0.0,0.09,0.00,0.00
15min,AgWx,bigpiney,439,28FEB2019:04:15:00,22.8,12.65,19.4,19.0,19.2,19.6,18.8,89,90,88,0.315,16.4,17.0,16.0,4.319,3.1,199,12,4.6,-0.00008,-0.00009,30.1,30.0,8,0,0,0.0,0.09,0.00,0.00
15min,AgWx,bigpiney,439,28FEB2019:04:30:00,22.3,12.64,17.0,17.1,18.4,19.1,17.1,89,90,87,0.288,15.6,16.3,14.1,3.288,2.5,338,62,4.4,-0.00009,-0.00010,30.1,30.0,8,0,0,0.0,0.09,0.00,0.00
15min,AgWx,bigpiney,439,28FEB2019:04:45:00,21.7,12.64,18.1,17.6,16.9,17.6,16.7,90,92,88,0.308,14.6,15.7,14.0,0.066,1.4,53,24,4.3,-0.00011,-0.00015,30.1,30.0,8,0,0,0.0,0.09,0.00,0.00
15min,AgWx,bigpiney,439,28FEB2019:05:00:00,21.0,12.63,17.3,16.2,16.9,17.6,16.2,91,92,90,0.284,14.7,15.8,13.7,1.469,1.9,215,20,3.4,-0.00010,-0.00013,30.1,30.1,8,0,0,0.0,0.09,0.00,0.00
15min,AgWx,bigpiney,439,28FEB2019:05:15:00,20.4,12.63,18.2,17.6,16.6,17.7,15.9,91,92,90,0.309,14.3,15.8,13.5,2.389,0.9,252,58,2.4,-0.00013,-0.00018,30.1,30.0,8,0,0,0.0,0.09,0.00,0.00
15min,AgWx,bigpiney,439,28FEB2019:05:30:00,20.0,12.62,17.5,16.9,16.3,17.6,15.9,91,93,89,0.301,14.0,15.7,13.3,0.57,1.5,354,44,2.7,-0.00011,-0.00014,30.1,30.0,8,0,0,0.0,0.09,0.00,0.00
15min,AgWx,bigpiney,439,28FEB2019:05:45:00,19.9,12.6,17.9,18.0,17.4,18.1,16.9,93,93,93,0.315,15.7,16.4,15.1,1.644,0.7,326,62,2.0,-0.00014,-0.00021,30.1,30.0,8,0,0,0.0,0.09,0.00,0.00
15min,AgWx,bigpiney,439,28FEB2019:06:00:00,20.2,12.59,18.3,18.1,18.0,18.2,17.7,92,93,91,0.312,16.1,16.4,15.8,1.951,1.5,237,41,2.8,-0.00012,-0.00016,30.1,30.1,8,0,0,0.0,0.09,0.00,0.00
15min,AgWx,bigpiney,439,28FEB2019:06:15:00,20.6,12.61,18.9,18.5,18.4,18.8,18.0,91,92,91,0.318,16.2,16.8,15.8,3.069,1.9,233,54,3.3,-0.00011,-0.00014,30.1,30.1,8,0,0,0.0,0.09,0.00,0.00
15min,AgWx,bigpiney,439,28FEB2019:06:30:00,21.0,12.6,19.2,18.8,18.5,18.9,18.3,92,92,91,0.326,16.5,17.0,16.3,0.482,1.2,281,13,3.3,-0.00013,-0.00017,30.1,30.0,8,0,0,0.0,0.09,0.00,0.00
15min,AgWx,bigpiney,439,28FEB2019:06:45:00,21.3,12.6,19.2,18.9,18.9,19.1,18.8,92,93,92,0.326,17.0,17.3,16.8,2.083,1.7,325,28,2.7,-0.00012,-0.00015,30.1,30.1,8,0,0,0.0,0.09,0.00,0.00
15min,AgWx,bigpiney,439,28FEB2019:07:00:00,21.6,12.61,19.8,19.1,19.0,19.2,18.8,92,93,92,0.331,17.1,17.4,16.8,0,0.8,350,68,2.5,-0.00014,-0.00020,30.1,30.0,8,1,0,0.0,0.09,0.00,0.00
15min,AgWx,bigpiney,439,28FEB2019:07:15:00,21.9,12.63,21.0,20.2,19.8,20.3,19.1,94,94,93,0.353,18.3,18.9,17.3,1.381,0.4,167,6.9,2.3,-0.00011,-0.00011,30.1,30.1,8,7,0,0.0,0.09,0.00,0.00
15min,AgWx,bigpiney,439,28FEB2019:07:30:00,22.2,12.73,20.9,20.2,20.2,20.3,20.0,94,95,94,0.353,18.8,19.0,18.6,1.096,1.7,236,31,2.8,-0.00008,-0.00008,30.1,30.1,8,19,0,0.0,0.09,0.00,0.00
15min,AgWx,bigpiney,439,28FEB2019:07:45:00,22.5,12.93,20.3,19.7,19.8,20.4,19.5,94,94,93,0.343,18.3,19.0,17.9,0,1.4,308,31,4.3,-0.00000,0.00000,30.1,30.1,8,39,0,0.0,0.09,0.00,0.00
15min,AgWx,bigpiney,439,28FEB2019:08:00:00,22.7,13.4,21.0,20.3,20.0,20.5,19.7,94,94,94,0.354,18.5,19.0,18.2,1.074,0.9,169,41,3.0,0.00008,0.00009,30.1,30.1,8,62,0,0.0,0.09,0.00,0.00